LIPRLIPE

Guest
Details From LIPR - Rimini Mil
To LIPE - BOLOGNA
Flight Number -
Tags decoded
Created
Modified
Stats Distance 67 nm / 124 km
Max Altitude 0 ft / 0 m
Waypoints 5
Social Downloads 3
Likes 0
Share VATSIM

Download

Looking for another format? Having issues loading an existing format? Contact us
Advertisement - Login to hide

Notes

Requested: LIPR PELEG GEPRI BOA02 LIPE

Route

LIPR PELEG GEPRI BOA02 LIPE

ID Type Via Altitude Latitude Longitude Leg Dist Tot Dist Heading (true) Name
O LIPR APT - 0 ft / 0 m 44.02029˚ 12.61175˚ - 0 nm - Rimini Mil
PELEG FIX - 0 ft / 0 m 44.22778˚ 11.73528˚ 39 nm 39 nm 289° / 288° -
GEPRI FIX - 0 ft / 0 m 44.45000˚ 11.48917˚ 17 nm 56 nm 322° / 322° -
BOA02 FIX - 0 ft / 0 m 44.52041˚ 11.33105˚ 7 nm 64 nm 302° / 302° -
O LIPE APT - 0 ft / 0 m 44.53545˚ 11.28866˚ 2 nm 66 nm 296° / 296° BOLOGNA

Altitude Profile

Advertisement - Login to hide

LIPR

Details ICAO LIPR (RMI)
Name Rimini Mil
Region Italy
Timezone Europe/Rome (UTC+1.0)
Stats Elevation 41 ft / 12 m (AMSL)
Location 44.020286° 12.611746°
Runways 1
Magnetic Variation 3.168° E

METAR

LIPR 170945Z 29009KT 5000 BR NSC 05/02 Q1019 RMK SCT SCT090 VIS MIN 5000 WIND THR31 30005KT WHT

Decode

TAF

Not found

Departure Runways

ID Width Length Bearing (true) Bearing (mag) Surface Threshold Offset Overrun Length
13 148 ft / 45 m 9,818 ft / 2,992 m 127.79° 124.62° Asphalt 1,030 ft / 314 m 846 ft / 258 m
31 148 ft / 45 m 9,818 ft / 2,992 m 307.81° 304.64° Asphalt 1,006 ft / 307 m 376 ft / 115 m

LIPE

Details ICAO LIPE (BLQ)
Name BOLOGNA
Region Italy
Timezone Europe/Rome (UTC+1.0)
Stats Elevation 123 ft / 37 m (AMSL)
Location 44.535446° 11.288662°
Runways 1
Magnetic Variation 2.919° E

METAR

LIPE 170950Z 29003KT 240V310 CAVOK 05/00 Q1019

Decode

TAF

TAF LIPE 170500Z 1706/1806 28008KT CAVOK TEMPO 1706/1708 2000 BR

Decode

Destination Runways

ID Width Length Bearing (true) Bearing (mag) Surface Threshold Offset Overrun Length
12 148 ft / 45 m 9,185 ft / 2,800 m 116.78° 113.86° Asphalt 1,007 ft / 307 m 0 ft / 0 m
30 148 ft / 45 m 9,185 ft / 2,800 m 296.81° 293.89° Asphalt 1,188 ft / 362 m 200 ft / 61 m

Approach Navaids

Runway Type Ident Frequency Range Bearing (true) Bearing (mag) Slope Elevation
12 Localiser BLN 108.90 MHz 18 nm / 33 km 116.81° 113.89° - 123 ft / 37 m (AMSL)
12 Glidescope BLN 108.90 MHz 10 nm / 19 km 116.80° 113.88° 3.00° 120 ft / 37 m (AMSL)
12 DME BLN 108.90 MHz 18 nm / 33 km - - - 131 ft / 40 m (AMSL)
30 Localiser IBBP 109.75 MHz 18 nm / 33 km 296.66° 293.74° - 123 ft / 37 m (AMSL)
30 Glidescope IBBP 109.75 MHz 10 nm / 19 km 296.88° 293.96° 3.50° 123 ft / 37 m (AMSL)
30 DME IBBP 109.75 MHz 18 nm / 33 km - - - 123 ft / 37 m (AMSL)

Popular Alternatives